�������ċp�F�����K�X���j�^�v���󋵏��
Date,Time,�ċp�F�����K�X���j�^(cps),����,����(m/s)
2021/11/04,00:00,1.6,��,6.9
2021/11/04,00:10,1.5,��,8.1
2021/11/04,00:20,1.5,��,8.5
2021/11/04,00:30,1.5,��,8.4
2021/11/04,00:40,1.5,��,7.1
2021/11/04,00:50,1.6,���k��,7.4
2021/11/04,01:00,1.5,���k��,6.6
2021/11/04,01:10,1.5,���k��,6.0
2021/11/04,01:20,1.4,���k��,7.2
2021/11/04,01:30,1.5,���k��,7.0
2021/11/04,01:40,1.4,���k��,7.8
2021/11/04,01:50,1.5,���k��,7.0
2021/11/04,02:00,1.5,���k��,6.3
2021/11/04,02:10,1.5,���k��,5.2
2021/11/04,02:20,1.5,���k��,6.2
2021/11/04,02:30,1.5,���k��,5.6
2021/11/04,02:40,1.5,��,6.0
2021/11/04,02:50,1.5,��,6.6
2021/11/04,03:00,1.5,��,5.3
2021/11/04,03:10,1.5,��,5.5
2021/11/04,03:20,1.4,��,6.7
2021/11/04,03:30,1.5,���k��,6.4
2021/11/04,03:40,1.4,��,5.0
2021/11/04,03:50,1.4,��,3.8
2021/11/04,04:00,1.4,���k��,5.3
2021/11/04,04:10,1.5,��,5.3
2021/11/04,04:20,1.4,��,5.7
2021/11/04,04:30,1.5,��,4.6
2021/11/04,04:40,1.5,���k��,5.7
2021/11/04,04:50,1.5,���k��,4.6
2021/11/04,05:00,1.4,�k��,3.1
2021/11/04,05:10,1.4,���k��,5.5
2021/11/04,05:20,1.5,�k��,6.4
2021/11/04,05:30,1.4,���k��,7.1
2021/11/04,05:40,1.5,���k��,7.1
2021/11/04,05:50,1.5,��,6.5
2021/11/04,06:00,1.5,��,6.2
2021/11/04,06:10,1.5,���k��,4.4
2021/11/04,06:20,1.4,���k��,3.8
2021/11/04,06:30,1.5,���k��,3.2
2021/11/04,06:40,1.4,�k��,3.3
2021/11/04,06:50,1.5,�k��,5.7
2021/11/04,07:00,1.5,�k��,5.0
2021/11/04,07:10,1.5,���k��,4.9
2021/11/04,07:20,1.5,���k��,4.8
2021/11/04,07:30,1.5,���k��,6.1
2021/11/04,07:40,1.5,���k��,5.9
2021/11/04,07:50,1.5,���k��,5.5
2021/11/04,08:00,1.5,���k��,6.2
2021/11/04,08:10,1.5,���k��,6.0
2021/11/04,08:20,1.5,�k��,5.4
2021/11/04,08:30,1.5,�k��,4.5
2021/11/04,08:40,1.5,�k��,4.6
2021/11/04,08:50,1.5,�k��,4.2
2021/11/04,09:00,1.5,�k��,4.5
2021/11/04,09:10,1.5,�k��,4.6
2021/11/04,09:20,1.5,�k��,5.3
2021/11/04,09:30,1.5,�k�k��,4.4
2021/11/04,09:40,1.5,�k,4.3
2021/11/04,09:50,1.5,�k�k��,7.0
2021/11/04,10:00,1.5,�k�k��,5.4
2021/11/04,10:10,1.5,�k,5.3
2021/11/04,10:20,1.5,�k�k��,4.1
2021/11/04,10:30,1.5,�k,2.8
2021/11/04,10:40,1.4,�k�k��,4.2
2021/11/04,10:50,1.5,�k�k��,5.8
2021/11/04,11:00,1.5,�k�k��,5.0
2021/11/04,11:10,1.4,�k��,5.1
2021/11/04,11:20,1.5,�k��,5.0
2021/11/04,11:30,1.6,�k��,5.4
2021/11/04,11:40,1.5,�k��,5.2
2021/11/04,11:50,1.5,�k��,5.6
2021/11/04,12:00,1.5,�k��,5.3
2021/11/04,12:10,1.5,�k��,5.0
2021/11/04,12:20,1.4,�k��,5.5
2021/11/04,12:30,1.5,�k��,4.4
2021/11/04,12:40,1.5,�k��,3.2
2021/11/04,12:50,1.5,�k��,3.4
2021/11/04,13:00,1.5,�k��,3.6
2021/11/04,13:10,1.4,�k��,3.8
2021/11/04,13:20,1.4,�k�k��,3.5
2021/11/04,13:30,1.4,�k�k��,3.7
2021/11/04,13:40,1.5,�k�k��,3.4
2021/11/04,13:50,1.5,�k��,3.2
2021/11/04,14:00,1.5,�k��,3.1
2021/11/04,14:10,1.4,�k�k��,3.6
2021/11/04,14:20,1.5,�k�k��,3.8
2021/11/04,14:30,1.6,�k�k��,2.8
2021/11/04,14:40,1.5,�k��,2.3
2021/11/04,14:50,1.5,�k��,2.5
2021/11/04,15:00,1.5,�k��,1.4
2021/11/04,15:10,1.6,�k��,1.5
2021/11/04,15:20,1.6,���쓌,0.9
2021/11/04,15:30,1.5,���k��,1.2
2021/11/04,15:40,1.5,�k�k��,0.8
2021/11/04,15:50,1.5,�k�k��,0.6
2021/11/04,16:00,1.5,-,CALM
2021/11/04,16:10,1.4,-,CALM
2021/11/04,16:20,1.4,-,CALM
2021/11/04,16:30,1.4,���k��,0.9
2021/11/04,16:40,1.5,���k��,0.8
2021/11/04,16:50,1.6,���쐼,0.8
2021/11/04,17:00,1.4,��,1.1
2021/11/04,17:10,1.5,���k��,1.5
2021/11/04,17:20,1.5,���k��,2.3
2021/11/04,17:30,1.5,���k��,2.6
2021/11/04,17:40,1.4,�k�k��,2.8
2021/11/04,17:50,1.4,�k��,4.0
2021/11/04,18:00,1.4,�k��,4.1
2021/11/04,18:10,1.5,�k��,3.6
2021/11/04,18:20,1.5,�k��,5.1
2021/11/04,18:30,1.6,�k��,4.4
2021/11/04,18:40,1.4,�k��,4.7
2021/11/04,18:50,1.4,�k�k��,5.6
2021/11/04,19:00,1.5,�k��,6.7
2021/11/04,19:10,1.4,�k��,6.3
2021/11/04,19:20,1.5,�k��,5.9
2021/11/04,19:30,1.5,�k��,6.6
2021/11/04,19:40,1.4,�k��,8.0
2021/11/04,19:50,1.5,�k��,7.4
2021/11/04,20:00,1.4,�k��,7.2
2021/11/04,20:10,1.5,�k��,7.3
2021/11/04,20:20,1.5,�k��,5.9
2021/11/04,20:30,1.5,�k��,6.1
2021/11/04,20:40,1.3,�k��,5.8
2021/11/04,20:50,1.5,�k��,5.2
2021/11/04,21:00,1.4,���k��,4.5
2021/11/04,21:10,1.5,�k��,4.0
2021/11/04,21:20,1.5,�k��,4.7
2021/11/04,21:30,1.5,�k��,4.6
2021/11/04,21:40,1.5,�k��,5.1
2021/11/04,21:50,1.4,�k��,4.4
2021/11/04,22:00,1.5,�k��,5.1
2021/11/04,22:10,1.6,�k��,5.2
2021/11/04,22:20,1.4,�k��,5.1
2021/11/04,22:30,1.4,�k��,4.7
2021/11/04,22:40,1.5,�k��,4.5
2021/11/04,22:50,1.4,���k��,3.2
2021/11/04,23:00,1.5,���k��,3.5
2021/11/04,23:10,1.5,���k��,3.4
2021/11/04,23:20,1.4,���k��,4.6
2021/11/04,23:30,1.4,�k��,3.6
2021/11/04,23:40,1.4,���k��,4.5
2021/11/04,23:50,1.5,���k��,4.8
